Theta_e
309 310 311 311 312 315 318 317 315 313 313 312 311 311 311 311 312 313 312 310 310 312 313 311 312 309 314 333 341 340 341 340 339 340 339 338 337 337 337 337 337 336 336 335 334 333 333 331 332 335 333 331 331 331 333 334 335 337 339 340 341 341 341 339 338 337 336 335 333 332 331 330 330 330 330 329 328 327 326 326 326 326 327 328 329 329
310 310 312 315 318 321 322 321 319 316 315 313 311 311 312 312 313 313 311 311 311 312 313 310 310 310 316 332 341 340 342 341 339 340 339 338 337 336 337 336 336 336 335 334 334 333 333 332 331 333 333 331 330 330 331 333 333 335 338 340 340 341 340 339 338 336 335 334 332 330 328 328 328 328 328 327 327 326 325 325 325 325 326 327 327 327
311 311 314 318 318 319 320 318 318 317 316 315 312 312 314 312 312 312 312 312 312 312 312 309 310 315 319 330 339 338 341 342 339 340 339 338 337 336 336 336 336 336 335 333 332 333 333 332 331 332 332 330 330 330 331 332 332 333 336 338 339 340 340 339 337 334 334 333 329 327 327 326 326 327 327 327 326 324 323 323 323 323 324 325 326 326
312 312 313 315 316 318 318 317 317 317 316 315 313 312 314 312 310 311 313 314 313 313 313 311 313 320 324 331 336 331 332 339 340 339 339 338 337 337 336 336 337 336 336 335 333 332 333 333 332 332 332 330 329 329 329 330 330 330 334 337 339 340 340 339 337 335 334 332 328 327 327 326 326 326 326 326 325 323 321 321 321 321 321 323 325 325
310 310 309 311 314 315 317 317 316 314 314 316 316 314 313 314 311 311 314 316 316 315 316 314 314 318 323 332 337 328 327 336 338 339 341 339 337 337 336 336 336 336 336 336 334 332 332 333 332 332 331 330 329 329 328 329 329 330 333 336 338 339 340 339 337 335 333 330 328 327 327 326 326 326 326 324 324 322 322 322 320 319 320 321 322 322
310 310 309 313 314 313 315 317 315 314 314 315 318 316 314 315 314 314 316 317 315 314 316 315 312 314 316 325 335 333 330 334 335 337 340 338 337 337 336 336 336 336 336 335 334 332 333 333 332 332 331 330 330 329 328 328 328 330 332 335 337 337 338 338 335 333 332 329 327 327 326 325 325 325 324 323 322 322 321 320 319 319 319 320 320 320
309 308 310 315 315 313 312 313 315 315 313 313 318 319 314 313 316 318 317 315 313 313 315 314 312 313 314 317 326 328 330 333 333 336 338 337 338 337 336 336 335 334 334 334 333 331 332 333 333 333 332 331 331 329 328 328 328 329 330 333 334 336 337 336 333 333 331 328 326 325 323 322 323 323 322 321 321 320 320 319 319 319 319 320 320 320
311 310 311 315 316 313 311 312 315 314 312 313 319 317 311 312 316 319 318 314 314 315 315 316 314 313 313 315 317 318 325 331 331 334 336 335 337 337 336 335 333 334 332 332 333 331 332 333 332 333 332 331 330 329 328 328 329 329 329 330 332 335 336 334 332 331 330 326 325 324 321 321 321 321 321 320 320 320 319 319 319 319 319 319 319 319
314 315 315 316 315 312 312 315 315 313 312 315 316 313 311 313 316 318 318 315 317 316 313 316 316 313 314 315 315 316 323 327 328 331 333 334 335 335 335 334 333 333 332 332 332 332 332 332 332 332 331 330 329 329 329 329 329 328 329 329 331 332 332 331 330 330 327 325 324 322 320 321 321 320 320 320 320 319 319 319 319 319 319 319 318 318
313 312 313 313 313 312 315 315 312 313 314 312 311 311 311 313 315 317 316 315 317 315 312 316 317 313 313 315 315 316 320 323 324 325 326 330 332 333 333 333 333 331 331 331 331 331 332 332 331 331 331 330 328 329 329 329 328 327 328 328 328 328 328 328 329 328 325 324 323 321 320 321 320 320 319 319 320 319 319 319 319 319 319 318 318 319
311 310 311 311 311 312 313 310 308 310 311 310 311 312 312 314 316 317 316 316 315 314 314 316 318 316 313 314 316 316 317 318 318 319 319 321 325 330 331 331 331 331 330 329 329 330 331 330 330 331 331 330 329 328 329 328 326 326 325 324 323 324 325 327 327 325 324 324 322 321 321 320 320 319 318 318 320 320 319 319 318 318 318 318 318 320
311 310 311 312 312 310 309 308 306 306 308 310 313 313 312 314 316 316 316 315 314 314 315 314 316 317 313 314 316 317 318 317 318 319 317 316 318 323 327 328 329 330 329 328 327 328 329 330 330 331 331 330 329 329 328 328 327 326 324 321 322 323 324 325 325 324 324 323 322 321 321 321 320 319 316 316 318 319 319 318 318 317 317 318 319 319
313 312 311 311 311 309 309 310 308 307 309 311 313 314 312 313 315 314 315 315 314 315 315 314 316 316 314 315 317 319 321 321 322 322 320 318 316 317 321 326 328 328 328 327 327 327 328 329 331 331 332 331 330 329 329 329 327 325 323 322 322 322 322 323 323 323 323 323 322 322 322 321 320 319 316 314 316 318 318 318 317 316 316 317 317 316
313 314 311 310 311 311 311 311 311 311 311 311 313 313 313 313 314 315 314 314 315 316 315 313 315 315 314 316 317 319 321 323 323 323 322 321 319 318 321 324 326 326 327 326 326 325 326 328 331 331 331 331 331 330 330 328 324 323 323 323 323 322 321 321 321 321 322 322 322 322 322 321 320 318 315 312 313 315 316 317 317 315 315 315 315 315
313 313 313 312 311 310 311 311 311 312 311 310 311 312 312 313 314 314 314 315 315 317 316 314 314 316 316 317 317 318 320 323 323 323 322 322 322 323 323 324 325 325 324 324 324 324 325 326 328 329 330 331 330 331 330 326 323 323 324 324 324 324 323 323 322 321 321 321 322 322 322 321 320 318 315 312 311 312 315 317 316 314 313 313 314 315
311 312 312 311 309 308 310 310 309 310 310 308 308 310 312 313 315 314 312 315 316 317 317 314 314 315 316 316 315 318 322 324 324 323 324 325 324 325 325 325 325 324 324 324 325 326 326 324 324 325 327 328 329 330 326 323 324 325 324 323 324 324 324 324 323 321 321 322 322 322 322 321 320 319 316 313 311 311 314 316 315 313 311 311 312 313
310 313 313 309 308 307 308 308 308 309 311 309 308 311 311 311 317 317 312 312 314 316 315 313 316 317 317 316 317 321 326 325 324 325 325 326 326 326 327 326 326 326 325 325 326 327 326 323 321 322 323 325 328 327 322 323 326 326 325 325 325 323 323 324 324 322 322 323 323 323 322 321 320 319 317 313 311 311 313 314 313 312 310 309 309 310
312 315 314 309 308 308 305 307 308 307 308 310 309 311 310 310 315 316 314 313 313 316 315 312 316 319 318 317 318 322 327 326 325 325 325 326 327 327 327 327 327 326 326 325 324 325 325 322 321 322 322 323 327 325 320 322 326 326 326 326 325 324 322 323 324 323 323 323 323 323 322 321 320 319 317 314 311 311 311 309 310 312 311 308 307 308
312 314 314 310 309 309 307 308 308 306 306 308 309 310 310 311 314 314 314 315 314 315 314 312 314 316 317 317 317 321 327 328 326 325 326 326 325 325 325 325 325 325 325 324 323 326 327 323 320 321 321 322 326 325 321 322 324 325 326 326 324 323 321 322 323 323 323 323 322 322 322 321 320 320 317 315 313 310 309 306 308 313 313 309 307 307
313 315 314 311 308 307 308 309 310 309 307 308 309 309 310 313 315 314 314 315 315 313 313 314 314 316 317 316 316 320 324 327 328 326 326 325 323 323 323 323 324 324 324 323 322 324 326 322 318 320 321 320 324 325 322 322 324 325 326 325 324 322 321 321 322 322 322 322 320 320 321 320 320 319 318 317 314 310 308 307 310 314 314 310 308 308
315 314 314 313 308 307 309 309 309 310 310 310 311 311 312 312 311 312 313 311 312 313 312 314 315 315 315 314 315 318 319 322 326 326 325 323 323 322 322 322 323 323 323 323 321 320 321 320 318 320 321 321 323 324 323 323 324 325 326 326 325 323 323 322 320 321 322 321 320 319 319 319 319 319 318 318 314 311 311 309 309 314 315 312 311 310
316 313 316 317 312 309 309 307 305 307 307 309 312 312 313 313 311 312 312 310 311 313 313 314 315 316 315 313 315 316 316 316 319 324 324 322 323 322 321 322 321 321 322 321 320 318 319 320 319 320 321 321 322 323 324 324 324 325 325 325 324 323 323 322 320 321 321 321 320 319 319 319 319 319 319 319 317 314 314 310 308 312 315 314 314 314
319 319 318 314 309 308 308 306 304 305 305 307 310 309 311 314 315 315 314 313 312 311 311 312 314 315 314 313 314 316 316 314 315 322 324 322 322 322 321 321 320 320 320 319 319 319 319 320 320 321 321 321 322 322 323 324 325 326 325 324 324 323 323 323 320 320 321 321 321 319 319 319 319 319 319 319 319 317 316 313 309 311 315 317 317 317
321 320 315 309 308 309 308 307 305 305 306 308 309 307 308 312 316 317 317 317 314 311 312 313 313 315 314 311 312 316 318 317 318 323 324 322 323 322 321 321 320 320 320 319 319 320 321 320 320 321 321 321 321 321 322 323 323 324 324 323 322 321 322 322 321 321 320 320 320 319 319 319 319 319 319 319 319 319 318 316 314 314 316 317 317 318
318 318 315 311 309 309 309 309 308 307 308 309 308 307 307 309 314 317 316 316 315 312 313 314 313 315 314 311 311 314 318 320 320 321 322 322 323 322 321 321 320 320 319 318 318 318 318 318 318 319 319 320 320 320 321 322 322 322 322 321 321 320 321 321 321 322 321 320 319 319 319 319 318 319 318 318 319 319 319 318 317 317 318 317 317 318
315 315 315 313 311 311 310 310 310 310 310 309 307 307 307 308 314 316 313 313 313 312 312 312 314 316 313 311 311 312 315 318 318 318 319 319 319 320 320 319 318 317 316 316 316 316 315 315 315 315 315 316 318 319 320 321 321 321 321 322 322 322 322 323 323 323 323 322 321 320 320 319 319 318 317 316 317 318 319 319 318 318 317 317 318 318
318 313 311 311 311 310 308 307 307 309 310 309 307 308 308 308 312 316 313 312 313 312 312 312 315 318 314 310 310 310 311 314 314 314 315 315 316 317 316 315 314 313 313 313 313 313 313 313 313 312 312 313 314 316 318 319 320 321 321 321 322 322 323 323 323 323 323 323 322 322 321 321 319 318 316 317 318 318 319 319 319 318 317 318 318 319
324 315 310 310 308 306 306 306 306 307 308 309 309 310 311 311 314 316 314 313 313 312 313 314 316 318 314 308 308 309 309 311 312 311 312 312 313 313 313 313 311 310 310 310 309 310 310 309 310 310 310 310 310 312 315 317 319 319 320 321 322 322 322 322 323 323 322 322 322 322 322 321 319 318 318 319 319 319 319 319 319 318 317 318 319 318
326 318 313 311 308 307 308 308 308 309 308 307 308 309 310 313 317 316 313 311 313 313 314 314 314 314 310 306 307 307 307 309 309 309 310 310 311 311 311 310 310 309 309 308 307 308 307 307 307 308 307 307 307 307 309 312 317 319 319 319 320 321 321 321 322 322 322 322 321 321 321 320 318 318 319 319 319 319 319 319 319 319 318 318 318 318
321 316 312 312 310 310 311 310 310 310 310 309 308 308 307 309 311 311 309 308 310 312 312 312 312 310 306 305 306 305 306 307 308 309 309 310 310 310 310 309 309 308 308 307 307 307 306 306 307 307 306 306 305 305 305 307 311 316 319 320 319 320 320 320 321 321 321 321 321 321 321 320 320 319 319 319 319 319 319 319 319 318 318 318 317 318
317 314 313 314 313 312 312 313 313 313 312 311 310 311 311 311 311 310 309 309 310 310 309 310 311 308 304 303 303 304 305 306 307 308 308 308 309 309 308 308 307 307 307 306 306 306 306 307 308 307 307 306 305 305 304 304 305 309 313 317 319 320 320 320 320 320 320 320 320 320 320 320 320 319 319 319 319 319 319 319 319 319 318 318 318 318
316 313 311 313 313 311 310 311 313 314 312 311 312 314 315 315 313 310 306 306 309 310 310 312 312 307 303 302 302 303 303 304 305 305 305 305 305 305 305 304 304 304 304 305 306 306 306 306 307 307 307 306 305 304 304 304 304 304 306 309 313 315 317 319 320 320 320 320 320 320 319 319 318 318 318 318 319 319 319 319 319 319 319 319 319 319
313 311 310 312 313 310 308 309 312 313 313 312 312 309 309 309 308 307 305 303 304 307 310 312 309 305 303 302 302 302 301 301 301 301 302 302 302 302 301 301 301 301 301 303 304 305 306 306 306 306 305 305 304 303 303 303 304 304 304 305 306 307 309 312 313 315 316 317 318 319 319 319 319 318 317 318 318 319 318 318 318 318 319 319 319 319
311 311 310 311 312 309 306 308 311 312 313 311 305 303 305 305 305 306 305 302 302 303 305 306 304 302 301 301 301 300 299 299 299 299 299 300 300 300 300 300 300 300 300 301 302 303 306 306 305 304 303 302 302 302 303 303 303 303 304 305 305 305 305 306 307 308 308 309 312 314 314 314 315 316 316 317 319 319 319 318 318 317 317 317 318 318
309 309 307 307 308 307 306 308 311 312 310 306 302 302 303 303 303 303 302 300 301 302 303 302 301 300 300 299 298 298 298 297 298 297 298 298 299 300 300 299 299 299 300 300 300 302 303 304 304 303 301 300 300 301 302 302 302 303 304 304 305 305 305 306 306 306 305 306 307 307 307 307 308 309 310 313 317 318 318 316 314 314 314 313 314 314
310 308 306 304 304 306 306 308 310 309 305 302 302 302 302 303 303 304 303 301 300 301 302 301 300 299 298 298 298 298 297 297 298 297 297 297 298 299 300 299 299 299 299 299 300 301 301 300 301 301 300 299 299 299 300 300 300 301 302 303 304 304 304 305 306 305 305 305 306 306 306 305 306 306 307 308 310 312 313 312 311 310 310 309 310 310
310 308 307 305 303 305 307 306 305 305 305 304 303 302 302 303 303 304 304 301 298 299 300 300 300 299 299 298 298 298 298 299 299 298 297 297 297 297 298 298 298 298 298 299 299 300 299 299 299 299 298 299 299 299 299 299 299 299 300 301 302 302 303 304 305 305 305 305 305 305 305 306 306 306 306 306 307 308 309 310 309 308 307 307 307 307
309 310 311 308 304 304 307 307 305 307 308 306 303 302 301 301 300 301 303 301 298 297 298 300 300 300 300 300 299 299 300 301 300 298 297 297 297 297 298 298 298 298 298 298 298 299 298 298 298 299 298 299 299 299 298 298 299 299 300 300 300 300 301 302 302 303 304 305 305 305 305 305 305 306 306 307 306 307 308 308 307 307 306 306 305 304
307 308 309 308 305 304 308 309 308 309 307 303 301 301 300 299 299 302 304 303 299 296 297 299 299 299 299 300 299 300 303 303 301 298 297 296 297 297 298 298 298 298 297 297 297 298 297 297 298 298 298 298 299 298 298 298 299 299 300 299 299 299 300 301 300 301 302 304 305 305 305 305 305 305 306 306 306 306 306 306 306 306 305 304 304 303
305 304 305 306 305 304 307 308 306 305 303 301 300 300 299 298 299 304 307 304 298 296 297 298 298 298 298 299 299 300 301 301 300 297 296 296 297 297 297 297 297 297 297 297 297 296 296 297 297 297 297 298 298 297 298 298 298 299 300 300 299 300 301 300 299 299 300 301 302 303 304 305 305 305 306 306 306 305 305 305 305 305 305 304 304 305
303 302 301 303 303 302 305 307 304 303 301 300 300 299 297 298 302 305 305 301 297 297 297 297 298 298 298 299 299 299 298 298 297 296 296 296 297 297 296 296 296 296 296 296 295 295 296 296 296 296 297 297 297 297 297 297 298 299 299 299 299 300 300 299 299 299 299 300 300 301 302 302 303 304 305 306 306 306 306 305 305 305 305 305 305 305
301 301 301 301 301 300 302 304 304 303 300 298 298 298 298 302 305 303 299 297 297 297 297 297 298 298 298 298 298 298 297 296 296 296 296 295 296 296 296 295 295 295 295 294 294 294 295 295 295 295 296 296 296 297 296 296 297 298 299 299 300 300 299 298 298 299 299 299 300 300 300 301 301 302 303 304 305 306 306 306 306 306 305 305 306 306
300 301 301 301 300 300 301 303 305 303 300 297 299 300 300 302 302 298 296 297 297 297 297 297 297 297 298 298 297 297 297 297 296 296 295 295 295 295 295 294 294 294 294 294 294 293 293 294 294 294 294 294 294 295 296 296 297 297 298 299 299 299 298 298 298 298 298 298 299 299 299 300 300 301 301 303 304 305 306 306 306 306 306 306 306 306
299 300 301 300 300 301 303 303 302 300 298 297 299 300 299 299 298 297 298 298 297 297 298 298 297 296 297 298 297 297 297 296 295 294 294 294 294 294 294 294 293 293 293 292 292 292 292 292 292 292 292 292 293 293 294 295 295 296 297 298 298 298 298 298 298 298 298 298 298 299 299 299 300 300 301 301 302 303 304 305 306 306 306 306 305 305
299 299 300 300 299 300 301 300 298 298 298 298 299 299 298 298 298 299 299 298 297 298 298 297 297 296 296 296 297 296 295 294 293 292 292 292 292 292 293 292 292 292 292 291 291 291 291 291 291 291 291 291 292 292 292 293 294 294 295 296 296 296 296 297 297 297 298 298 298 298 298 298 299 300 300 301 301 302 303 304 305 305 306 305 305 305
297 297 299 300 299 298 299 298 297 298 298 297 298 298 298 298 298 299 299 298 296 296 296 296 296 295 294 295 295 294 293 292 292 291 291 291 291 292 292 291 291 291 291 291 291 290 290 290 290 290 291 291 291 291 291 291 292 293 294 294 294 295 295 295 296 296 297 298 298 298 298 298 298 299 299 300 301 301 302 303 304 304 305 305 305 305
296 295 298 300 298 298 299 299 297 297 297 297 297 297 297 297 297 297 298 297 295 295 295 295 295 294 294 293 293 293 292 291 291 291 291 291 291 291 291 291 291 290 290 290 290 290 290 290 290 290 290 291 290 290 290 291 291 291 292 292 293 293 294 294 294 295 296 297 298 298 299 299 298 298 298 299 300 301 301 302 303 304 304 304 305 305
296 297 298 298 297 297 298 298 296 296 296 296 296 297 297 297 296 295 295 295 295 295 294 294 294 294 293 292 292 292 292 291 291 291 290 291 291 291 291 290 290 290 290 290 290 290 290 290 290 290 290 290 291 290 290 290 291 291 291 291 291 291 292 293 293 294 295 296 297 298 298 299 299 298 298 299 299 300 301 301 302 303 304 305 304 304
296 296 296 297 297 297 297 297 296 296 297 296 296 297 296 296 296 295 294 294 294 294 293 293 293 293 292 292 292 291 291 291 291 290 290 290 291 291 290 290 290 290 290 290 290 290 290 290 291 291 291 291 291 291 291 291 291 291 291 291 291 291 291 292 292 293 294 295 296 297 297 298 298 299 299 299 299 300 300 301 301 302 303 304 304 304
296 296 296 296 298 298 297 298 297 297 297 297 297 296 296 295 295 295 294 294 294 294 293 293 292 292 292 292 291 291 291 291 291 290 290 290 290 290 290 290 290 290 290 290 290 291 291 291 291 291 292 292 292 292 292 292 292 292 292 292 292 291 291 291 292 292 293 294 295 296 297 297 298 299 299 299 299 300 300 300 301 301 302 302 303 303
297 296 296 297 298 297 297 298 297 297 297 297 297 296 295 295 295 296 295 295 294 294 293 293 292 292 292 291 291 291 291 290 290 290 290 290 290 289 290 290 290 290 290 290 291 291 291 292 291 292 292 292 292 292 292 293 293 293 293 293 293 292 292 292 292 292 292 293 294 295 295 297 298 298 299 299 300 300 300 300 300 300 300 301 301 301
Wind_Speed
1 2 2 3 4 4 4 3 2 3 3 3 2 1 2 2 4 3 2 1 1 4 6 6 8 7 5 6 10 11 11 11 10 10 9 9 9 9 10 11 11 11 9 6 7 11 14 16 17 18 16 16 18 18 18 19 19 19 18 14 14 15 15 15 15 15 12 10 9 10 10 10 10 10 11 11 10 9 8 7 6 6 5 5 5 5
1 3 3 4 5 3 3 4 4 4 3 2 2 2 2 3 4 2 1 2 1 4 2 2 7 4 1 4 8 10 11 11 11 11 10 10 10 9 10 12 12 10 7 5 6 10 13 14 16 19 17 13 15 16 17 17 17 19 17 14 15 16 16 17 16 14 11 11 12 13 13 13 13 12 12 12 11 10 9 7 6 6 6 5 6 6
2 4 5 5 3 5 4 4 4 3 2 2 1 1 2 2 3 2 1 3 1 3 2 2 6 1 3 2 6 8 8 7 8 9 8 9 10 10 10 11 11 10 8 6 7 9 12 14 15 17 18 14 14 15 16 16 15 16 17 17 17 17 17 16 15 13 12 13 12 12 13 14 14 13 12 11 11 11 10 8 7 6 6 6 5 6
3 4 4 4 6 6 4 3 4 3 2 2 2 2 2 1 1 1 1 2 2 1 1 4 4 2 4 2 3 2 1 2 3 6 7 8 10 10 9 9 10 11 10 8 8 8 10 13 13 14 16 16 15 16 16 16 16 15 17 19 18 18 18 17 15 13 13 13 12 12 14 13 12 13 11 10 10 10 8 7 5 4 5 6 5 5
4 1 2 6 6 5 4 3 5 4 2 2 3 5 3 1 3 2 1 1 1 1 2 5 4 2 2 4 4 1 1 2 3 5 8 8 10 9 9 10 11 11 10 10 9 9 10 11 12 12 14 16 16 17 17 18 17 17 18 20 19 19 19 18 17 15 14 15 15 16 16 14 13 13 11 10 10 8 6 5 4 3 4 5 5 5
4 1 4 5 3 4 4 3 5 5 3 2 5 9 7 4 3 3 2 1 3 3 2 1 3 3 2 3 6 4 3 3 3 6 9 9 10 10 10 11 11 10 10 10 9 9 9 10 11 11 12 12 11 13 16 17 17 17 19 20 20 20 19 19 18 16 16 16 17 18 17 14 13 12 10 10 10 8 7 6 6 6 6 5 4 4
2 3 3 3 3 4 4 3 5 6 4 2 4 8 8 5 2 2 2 2 2 2 1 1 1 3 3 2 5 5 7 7 5 7 10 11 11 12 12 11 11 11 11 11 9 8 9 10 10 9 9 8 7 9 14 16 18 19 21 22 22 21 20 20 18 17 16 17 18 16 13 12 12 12 11 10 10 10 9 9 9 8 7 6 5 5
3 4 2 2 3 4 4 3 5 8 6 2 1 5 8 6 5 4 2 1 0 0 1 1 1 2 3 2 2 2 6 8 6 8 10 10 12 13 13 13 12 12 12 11 9 7 9 10 10 9 7 7 8 12 15 18 20 22 23 23 23 22 22 21 19 17 17 17 17 14 12 12 11 11 12 11 11 11 11 11 11 9 8 7 6 5
3 4 4 5 3 2 4 3 7 11 5 1 2 4 6 4 3 3 2 2 1 1 3 1 3 1 3 2 2 3 6 8 9 10 10 10 11 11 12 13 13 12 11 11 9 7 7 8 8 7 8 9 11 15 18 20 21 21 22 22 22 21 21 21 19 18 18 17 15 13 12 13 12 11 12 12 12 12 12 11 10 9 8 7 6 5
1 3 4 5 2 3 3 0 7 10 3 1 5 6 5 4 3 2 1 2 1 2 3 2 4 1 3 1 2 3 4 5 6 6 7 8 9 10 10 10 10 9 9 9 8 6 6 7 7 7 9 11 14 17 18 19 19 18 19 20 21 21 21 21 19 18 17 16 14 13 12 13 13 13 13 14 13 12 11 10 9 8 7 7 6 6
1 1 1 3 2 2 3 3 2 2 3 4 5 5 5 3 2 1 2 2 1 2 1 2 5 2 3 1 1 2 2 0 3 3 3 4 7 9 9 8 8 8 7 7 6 5 5 7 8 9 10 11 14 17 17 16 15 14 16 18 19 19 20 20 19 18 17 15 14 12 10 11 12 13 14 15 15 13 11 10 10 8 8 7 7 7
2 1 1 2 1 3 5 5 2 2 3 4 2 3 3 1 1 1 1 0 3 3 1 2 3 2 3 2 1 2 1 2 4 5 4 5 6 7 7 7 7 6 6 7 6 6 6 8 10 11 11 13 14 15 16 15 11 10 13 16 16 16 18 19 18 17 16 15 14 12 10 9 10 11 12 14 15 14 12 12 11 10 9 8 8 8
2 4 2 2 1 3 4 4 3 1 1 2 2 3 3 1 1 2 1 2 3 1 1 2 1 1 1 1 2 4 5 5 5 5 7 8 6 5 5 6 4 5 6 6 6 5 5 6 8 9 11 12 14 17 18 13 13 17 17 12 12 14 15 17 17 17 17 16 14 12 11 10 10 10 10 12 13 13 12 12 12 11 10 9 8 8
2 2 1 1 2 3 5 5 3 3 3 4 4 3 4 3 2 3 1 1 2 1 1 1 2 1 1 1 2 5 6 7 6 5 6 7 5 2 2 5 6 6 6 6 6 6 5 5 4 5 8 8 10 15 15 14 24 24 16 10 10 11 12 15 17 17 17 16 15 14 13 12 11 11 11 11 12 13 12 12 12 12 11 9 8 7
3 2 2 3 1 2 7 5 3 4 4 3 1 2 4 4 2 3 3 2 3 1 2 1 1 2 2 1 3 5 5 5 5 4 2 1 1 4 6 8 8 8 8 8 9 9 8 9 8 3 4 8 11 10 7 22 29 22 15 12 8 7 11 15 16 17 16 16 15 15 14 14 13 12 12 12 12 12 12 12 12 11 11 9 8 6
1 3 2 1 1 2 4 2 3 4 4 1 0 2 2 3 3 1 0 1 1 1 2 2 1 1 0 1 4 4 3 5 4 3 3 5 7 8 9 9 9 9 9 8 8 8 8 11 11 2 9 10 11 4 14 26 24 18 18 17 12 12 14 15 15 16 16 16 16 15 16 16 14 13 12 13 13 12 11 11 11 11 10 8 7 6
1 2 1 1 0 0 2 2 2 0 2 3 2 3 1 0 3 3 2 2 1 2 2 1 1 1 1 1 2 1 2 4 3 3 4 6 8 9 9 8 9 10 10 9 8 6 3 7 15 9 12 15 7 12 27 27 17 17 22 25 23 19 17 16 17 18 18 17 16 16 16 16 15 14 13 13 14 13 12 11 10 10 10 9 7 6
2 1 1 0 2 2 2 2 5 3 1 3 3 5 3 2 2 2 2 2 0 3 2 1 1 1 3 2 3 5 5 5 4 3 4 5 7 8 7 7 8 8 8 8 7 7 2 1 11 11 13 13 3 18 33 30 18 18 24 27 26 20 19 22 21 20 19 18 16 16 17 17 16 15 13 12 13 13 13 13 12 11 10 9 7 5
2 2 1 1 1 2 2 2 5 3 3 1 2 5 3 2 2 2 2 2 3 3 1 1 0 2 4 1 1 5 6 7 6 4 5 5 4 5 5 5 6 5 6 7 5 5 2 1 5 7 5 3 5 15 29 32 24 22 25 26 25 21 22 25 23 21 20 19 18 17 18 17 16 16 15 12 13 14 15 15 14 12 11 9 8 6
1 2 1 0 1 1 1 1 3 3 4 3 3 3 1 1 2 2 1 2 4 4 2 2 2 3 3 1 2 1 3 6 7 5 4 4 3 3 3 4 4 4 4 5 4 4 2 3 6 8 6 5 8 13 22 27 24 22 22 22 24 23 22 23 23 21 20 19 17 17 17 17 17 17 16 14 14 15 16 15 12 11 11 10 9 7
1 1 2 0 1 2 1 0 2 3 3 3 4 3 1 1 1 1 1 1 1 3 3 3 3 2 1 2 4 4 3 2 5 5 3 2 3 3 3 1 2 4 3 3 4 4 2 4 9 12 9 7 9 12 16 20 22 21 19 19 22 24 22 21 20 19 19 17 15 15 16 17 17 19 18 16 16 15 15 14 11 10 10 10 9 8
1 1 2 1 0 2 1 2 2 3 2 2 3 3 3 3 3 4 3 1 0 1 2 3 3 2 2 2 5 5 3 2 2 5 5 4 4 5 3 1 3 5 4 3 4 4 4 6 9 10 9 7 9 11 13 16 20 22 20 19 21 22 23 21 17 16 16 14 12 13 15 16 17 19 19 19 17 15 14 14 13 11 10 10 9 8
1 2 2 1 0 0 1 1 1 1 1 1 1 1 2 2 2 3 4 3 2 1 1 1 2 2 3 5 5 5 4 3 2 5 7 5 5 6 5 5 5 6 5 5 5 6 7 8 9 10 9 7 7 8 10 12 17 21 19 17 16 17 19 19 16 14 13 11 11 12 14 16 17 18 19 19 18 15 15 15 15 12 11 11 10 8
1 1 2 2 1 1 0 1 1 1 2 2 3 2 1 1 1 1 1 2 3 3 2 2 3 3 3 5 5 5 4 2 2 5 8 7 7 8 8 7 6 5 5 6 6 7 8 10 11 11 9 7 5 6 7 7 10 13 12 10 10 11 13 14 12 12 11 10 12 12 13 14 15 16 17 17 16 15 15 16 15 13 12 12 11 10
1 1 1 3 3 1 1 2 2 1 1 1 2 2 1 2 4 3 2 1 3 2 2 3 3 3 3 4 6 7 6 7 6 5 7 7 6 7 7 6 6 6 7 7 8 8 10 11 11 11 10 8 5 4 5 5 6 6 5 5 7 9 9 9 9 9 9 8 9 12 13 13 14 14 14 14 14 14 15 17 16 14 13 13 12 13
1 0 1 1 5 5 4 2 1 1 1 1 2 3 2 1 2 3 3 2 4 3 2 2 2 4 3 6 9 9 7 7 7 7 7 7 6 6 6 7 7 7 8 9 9 9 10 11 12 12 11 10 8 6 3 4 5 5 4 4 5 6 7 7 7 7 8 7 7 9 12 13 14 14 14 13 13 12 15 17 16 15 15 14 13 13
2 2 3 3 2 1 1 1 3 1 1 2 2 4 5 4 3 0 3 3 3 4 3 1 1 6 3 6 8 8 8 7 6 7 7 7 7 7 7 8 8 8 8 9 9 9 10 11 11 12 12 12 12 10 7 4 3 3 2 2 2 3 4 5 6 7 7 8 8 9 11 12 13 13 13 13 13 14 16 17 18 18 17 15 13 13
3 2 4 6 7 5 3 3 4 4 5 5 4 4 5 5 4 1 3 2 2 4 4 1 2 5 3 6 7 6 7 5 6 6 6 6 6 6 7 9 10 10 10 10 10 10 11 10 9 11 12 12 13 13 11 8 5 4 3 2 1 1 2 4 5 6 6 6 7 8 10 11 10 10 10 11 12 14 16 18 19 20 18 16 14 13
5 2 2 3 6 7 7 7 8 8 7 6 7 6 6 7 5 5 4 2 0 1 2 4 5 4 4 4 5 6 5 4 5 5 5 6 6 7 9 11 12 11 11 11 11 10 10 9 9 11 12 12 13 13 13 11 8 6 4 3 1 1 1 3 4 5 5 5 6 6 7 8 9 10 10 10 11 13 16 18 19 20 19 16 14 13
3 2 2 3 4 6 8 7 8 9 7 6 8 7 6 7 8 8 5 3 5 6 5 7 10 8 4 4 5 5 3 3 5 6 7 8 8 10 12 13 12 12 12 12 11 10 10 10 11 13 14 15 15 15 14 14 12 8 5 3 2 1 1 1 2 4 6 6 6 7 6 7 9 10 11 11 12 12 15 17 18 18 17 16 13 12
2 3 4 4 4 3 5 6 6 8 8 6 5 5 5 5 6 6 5 4 6 8 6 8 11 8 4 4 5 4 3 5 8 10 10 9 9 12 14 14 13 13 12 12 12 11 11 12 14 15 16 16 16 17 17 17 15 13 9 5 3 2 2 1 1 3 4 5 7 8 7 7 8 8 9 11 11 12 13 14 15 15 15 15 13 13
2 4 3 3 3 2 2 3 5 7 7 4 2 3 5 4 3 4 4 3 2 4 7 7 6 5 3 4 5 6 7 10 12 12 11 10 11 14 14 13 13 12 12 12 12 12 12 13 14 15 14 14 14 16 17 18 18 18 16 11 7 4 3 2 0 1 2 3 5 6 6 7 6 7 8 10 10 11 11 12 13 14 14 14 14 15
2 5 5 3 4 3 1 2 3 4 3 3 2 1 2 2 2 2 4 5 5 0 3 3 4 5 4 4 6 9 11 12 11 9 9 10 11 13 13 13 12 11 11 10 10 11 11 11 12 13 13 14 14 15 17 18 19 20 19 17 14 11 9 7 5 4 2 2 2 3 4 5 5 5 5 8 10 10 10 10 11 13 15 15 14 15
2 5 5 2 3 3 3 4 4 2 2 1 3 2 2 1 4 5 4 6 6 3 3 6 7 7 6 6 8 10 10 10 9 8 8 8 9 11 12 12 11 11 10 10 10 10 10 11 12 13 15 17 18 18 18 19 19 18 17 17 16 14 13 11 10 9 7 5 3 2 2 3 5 4 3 4 7 8 9 8 9 12 13 13 12 12
2 3 2 2 2 3 4 5 5 3 2 2 5 2 1 4 9 12 11 9 8 6 8 11 11 9 8 8 9 10 11 10 10 10 10 9 9 9 10 10 11 11 10 10 10 10 11 12 13 14 16 19 19 19 19 19 18 16 14 14 14 14 13 11 10 9 8 7 5 3 2 2 3 3 3 3 4 6 7 7 7 9 10 8 9 9
2 2 2 2 2 3 4 4 3 1 1 2 3 2 3 3 5 8 10 9 8 6 6 11 11 9 9 8 7 8 8 8 9 9 9 9 9 8 8 8 9 9 9 9 9 10 12 13 13 14 16 18 19 19 19 18 17 15 13 12 11 12 11 11 10 10 9 7 4 3 2 2 2 2 2 2 2 4 7 7 7 7 8 9 9 9
2 2 2 2 1 2 3 2 0 1 1 2 3 1 0 1 0 1 4 5 5 5 3 8 9 8 7 6 5 3 2 3 7 8 8 9 9 8 8 8 7 8 8 9 9 10 12 13 13 14 15 16 16 17 18 17 17 16 15 14 13 13 12 10 10 9 9 6 4 3 3 1 1 0 1 1 2 4 6 8 9 10 11 11 10 9
3 1 1 1 0 1 3 3 1 1 2 3 4 1 0 0 1 2 2 4 3 3 2 4 6 5 4 3 3 2 2 2 6 5 6 9 9 8 9 9 9 10 10 11 12 12 13 14 14 14 15 14 14 15 16 16 16 16 15 15 15 15 13 12 11 10 8 6 4 3 3 2 2 3 5 6 6 7 9 11 12 12 12 11 10 10
6 3 2 2 1 1 2 3 2 2 0 1 2 1 2 1 2 3 2 3 2 2 1 3 5 4 2 1 1 2 2 2 4 3 5 7 8 8 9 9 11 12 11 12 13 13 14 15 15 14 15 15 14 15 16 16 16 14 12 14 15 14 13 13 13 12 10 7 7 6 4 4 4 3 6 9 10 11 12 13 14 13 12 12 12 11
5 3 2 2 2 2 2 1 2 2 0 2 2 3 4 0 3 4 4 4 3 1 1 3 6 5 3 2 2 2 1 2 3 3 5 6 6 8 9 9 11 12 12 13 15 15 15 16 16 15 16 16 16 16 15 16 16 14 12 14 14 13 12 13 14 13 12 10 10 11 11 11 10 8 7 7 9 11 12 13 14 14 14 14 13 12
3 2 1 2 2 2 2 2 0 1 1 1 3 4 3 1 4 4 2 3 4 3 2 4 6 6 5 4 3 4 4 3 3 3 4 5 6 8 9 10 10 10 12 13 14 16 16 16 16 15 15 16 16 16 16 16 14 13 12 13 13 12 12 15 15 14 14 13 12 12 13 14 15 15 14 11 10 10 11 12 13 14 15 16 15 13
2 2 1 1 2 1 2 2 1 1 1 2 4 4 2 2 3 2 2 2 4 5 4 4 5 5 5 6 5 4 4 4 4 4 5 6 6 7 8 9 10 10 11 11 12 14 14 13 14 15 15 16 17 16 17 17 15 13 12 12 12 13 14 16 16 17 16 16 15 14 14 14 15 15 16 16 15 15 14 13 12 13 15 16 15 15
2 1 1 1 1 1 2 2 1 2 2 4 4 2 1 0 2 4 4 3 4 6 5 5 5 4 4 5 5 4 4 4 4 5 5 5 5 6 7 8 9 10 11 12 12 14 14 13 13 14 15 17 18 17 17 18 17 15 14 12 13 14 15 15 16 17 18 18 17 16 15 15 15 14 14 16 17 19 20 20 18 17 17 17 16 16
3 2 1 1 0 1 1 2 0 1 3 4 2 1 4 4 3 4 5 4 4 4 4 4 5 4 4 4 4 4 4 4 4 4 4 5 6 7 8 9 10 10 11 12 12 13 13 13 14 15 15 16 17 17 17 16 16 15 15 15 15 16 16 16 16 17 18 19 19 19 17 16 15 15 14 15 16 19 21 23 24 24 24 23 21 19
3 2 1 2 2 2 3 3 2 1 3 4 4 5 6 6 5 4 5 5 4 2 3 3 4 4 4 4 3 3 4 4 3 3 4 5 5 6 8 9 9 10 10 11 11 12 13 13 13 15 16 15 15 16 16 15 15 16 17 18 18 19 18 18 18 19 19 19 19 20 20 19 18 16 15 15 16 18 20 22 24 26 27 27 25 23
2 1 1 2 4 5 5 4 3 2 3 5 6 5 5 5 4 4 5 5 3 2 3 3 3 4 3 4 4 3 3 3 3 3 4 4 5 6 8 8 8 9 10 10 11 11 12 12 12 13 15 15 15 14 15 14 14 16 19 21 23 23 21 20 20 20 21 21 20 21 21 21 20 19 17 16 16 18 20 23 24 25 27 27 25 24
1 0 1 3 3 2 3 3 2 3 3 4 4 4 5 5 4 4 4 4 3 3 4 3 3 4 4 4 4 3 3 3 4 5 4 4 5 6 8 8 9 10 11 12 13 13 13 12 13 13 15 16 15 14 15 15 15 16 18 19 21 23 23 23 23 22 21 20 20 20 20 19 20 21 20 18 17 16 18 22 24 25 28 29 27 24
1 1 2 3 2 2 3 4 2 2 2 2 2 3 4 5 5 5 4 5 4 4 4 4 3 3 3 4 4 3 4 4 4 5 5 5 5 7 8 10 11 12 13 13 13 13 13 13 13 14 15 16 16 16 16 17 17 17 18 18 19 19 20 22 23 23 22 21 21 21 21 19 19 19 19 20 18 16 16 19 22 24 28 31 31 29
1 0 1 2 3 4 3 3 3 3 3 2 1 2 2 3 5 6 5 5 4 4 5 4 4 4 4 4 4 4 5 5 6 7 7 7 7 9 11 13 14 14 14 13 13 12 12 13 13 14 15 16 16 16 16 17 17 18 18 18 17 17 18 20 21 22 23 23 21 22 23 22 20 18 17 18 19 17 16 17 20 24 27 28 29 30
1 2 2 3 4 3 2 5 6 3 2 3 4 4 3 3 5 6 5 4 4 4 3 3 3 3 4 4 5 5 5 5 7 9 9 9 10 12 13 14 14 13 13 13 13 13 13 13 13 14 15 14 14 15 15 16 17 17 17 17 16 16 17 18 19 20 20 20 20 21 21 21 19 18 16 16 17 18 16 15 16 20 24 26 26 27
0 2 2 2 2 1 2 6 6 1 2 3 5 5 4 4 4 5 4 3 3 3 3 2 2 2 3 4 4 4 5 6 8 10 10 11 12 12 13 13 13 13 14 13 13 14 14 14 14 14 15 15 15 15 16 16 17 17 17 18 17 17 18 18 18 19 19 18 19 20 20 20 18 17 15 14 15 16 16 15 14 14 17 21 23 23
Wind_Direction
191 175 180 196 196 195 196 189 149 116 116 126 132 180 221 242 257 254 244 312 189 218 226 206 217 222 188 180 183 180 183 192 196 193 196 195 194 202 205 207 211 213 213 197 158 151 155 165 188 206 202 192 195 195 195 198 196 193 193 183 175 181 188 193 187 182 180 169 164 165 160 151 137 130 124 120 117 113 110 101 88 83 80 73 83 95
214 192 211 222 200 176 165 145 125 119 113 123 169 229 248 224 253 268 160 2 255 214 235 188 211 221 165 187 184 183 191 198 202 200 199 199 202 207 209 211 212 212 210 185 151 149 160 170 186 205 210 193 187 196 199 201 200 196 192 188 186 187 192 196 189 182 180 176 173 168 160 150 137 130 126 123 119 115 112 106 97 93 86 84 87 92
208 213 228 215 146 99 104 132 139 131 127 129 165 241 245 213 258 277 132 13 34 212 250 169 193 167 51 176 183 190 203 204 204 207 204 202 209 215 213 215 216 213 213 198 172 163 168 175 183 199 210 201 188 196 201 200 201 197 195 197 198 195 196 198 191 183 184 182 179 167 154 145 135 130 126 121 118 115 113 105 99 95 91 88 89 94
194 238 235 167 139 127 113 128 138 124 155 180 175 222 228 189 248 204 122 29 42 278 245 146 151 68 68 138 175 191 206 153 166 191 200 206 217 222 218 219 219 217 219 211 190 178 175 178 183 194 204 200 192 192 194 196 197 196 196 199 201 200 198 198 190 183 187 184 175 159 146 139 132 129 126 120 116 115 112 104 96 93 94 92 92 95
219 284 101 125 145 155 131 138 163 167 199 216 213 221 229 209 226 242 0 347 170 65 71 123 130 89 98 171 192 151 70 106 128 177 194 212 227 227 221 222 222 222 223 219 207 193 183 181 185 193 197 194 191 189 188 192 194 193 196 198 200 200 199 197 188 185 190 181 165 150 139 133 127 126 128 125 122 122 116 107 99 99 105 100 93 86
243 160 131 130 131 160 149 165 194 193 196 233 219 217 223 213 216 260 319 239 181 125 71 113 165 145 96 192 193 178 191 179 160 202 209 213 225 226 222 224 223 224 225 224 216 195 186 186 188 192 192 189 184 184 186 190 192 192 194 196 199 201 200 196 189 188 190 180 166 154 143 136 130 126 127 127 127 128 122 114 112 110 111 107 96 88
231 124 146 151 141 169 183 213 210 190 187 232 215 205 208 205 208 243 239 208 191 126 91 308 220 155 118 170 187 181 199 196 181 209 217 215 221 223 222 223 221 222 225 225 214 191 187 189 189 189 185 174 161 169 184 189 192 195 197 198 199 201 201 194 188 189 188 180 173 163 145 135 134 131 132 133 129 126 123 119 117 114 110 106 100 96
152 124 114 128 125 159 192 227 201 181 184 206 174 167 173 187 202 205 199 180 190 59 138 346 327 163 131 135 186 184 192 200 204 209 213 214 218 222 221 219 219 220 220 221 213 194 192 191 188 180 160 150 158 170 182 190 195 198 198 197 196 197 198 191 187 189 188 183 179 168 143 132 134 134 137 139 133 128 126 122 120 118 113 107 100 96
141 169 172 153 129 180 208 222 177 176 192 273 124 135 144 159 174 171 162 113 60 235 179 67 356 192 146 109 162 179 188 205 217 216 213 212 215 219 219 215 215 215 215 219 215 198 192 189 180 159 141 152 173 182 190 197 199 194 189 189 189 190 190 184 183 186 186 186 184 170 148 139 139 138 140 144 140 134 131 127 124 122 118 111 101 96
129 208 180 162 177 217 219 201 172 178 192 151 133 106 96 94 83 93 131 111 91 232 190 36 349 221 166 107 134 168 184 204 221 225 222 218 217 218 219 213 204 202 206 210 210 201 187 174 157 142 143 159 180 193 201 202 194 183 179 178 176 177 178 177 179 185 186 188 187 175 156 147 146 146 146 147 145 141 137 131 127 127 121 115 109 102
0 352 148 185 215 186 116 75 147 170 117 150 143 102 95 80 56 60 40 70 172 214 177 6 338 282 186 175 186 175 153 288 279 265 256 248 236 225 222 216 200 193 189 187 189 183 166 148 142 147 150 164 186 198 204 200 186 174 168 160 156 161 169 174 181 188 188 190 192 183 166 155 153 154 154 152 150 147 144 139 133 129 123 119 119 116
329 254 203 231 189 125 107 87 53 33 114 157 147 121 134 74 37 114 40 139 198 189 88 0 329 275 207 178 232 271 338 345 299 282 289 281 258 238 227 214 200 185 172 171 174 169 159 143 143 153 157 169 187 197 203 196 169 136 132 137 143 154 168 178 185 190 190 192 194 188 178 170 165 163 161 158 156 152 149 146 139 132 127 126 126 125
267 225 267 312 190 164 139 105 89 88 146 169 133 143 170 162 169 202 202 202 212 190 59 339 309 236 241 279 296 299 328 343 314 289 282 277 272 262 230 201 180 164 160 162 159 151 146 142 148 159 167 177 185 193 200 181 117 97 102 126 158 163 170 180 186 192 193 194 195 192 191 187 179 172 166 161 155 151 150 148 141 136 133 134 133 130
233 242 300 249 205 188 179 163 154 171 189 185 160 163 180 158 161 200 185 219 246 199 81 328 288 198 210 305 279 296 327 342 330 304 282 275 278 282 168 150 135 132 131 124 114 101 89 86 102 150 173 192 198 198 192 136 104 104 119 160 182 166 173 188 193 197 197 198 200 198 198 196 188 178 168 161 152 147 149 146 140 134 132 137 141 138
207 232 206 192 180 169 188 193 157 140 158 180 152 159 180 170 181 209 201 200 207 145 96 163 214 184 157 72 320 312 336 357 355 343 329 321 98 105 109 114 115 117 115 113 110 105 100 83 60 38 218 209 209 215 150 110 107 117 153 189 196 186 201 206 202 202 200 202 204 202 203 201 195 186 171 159 149 146 148 147 141 132 125 130 138 142
211 254 254 277 329 180 197 186 104 116 135 130 63 151 186 187 154 142 178 154 169 133 124 173 215 268 213 327 317 320 4 26 25 25 76 98 106 108 107 110 113 117 119 121 121 119 119 113 102 44 283 243 217 186 96 104 113 136 172 197 216 229 231 221 211 211 210 209 208 207 208 206 201 195 177 160 152 149 148 149 146 134 121 119 125 136
156 259 294 341 49 229 260 168 109 179 160 132 173 178 177 75 115 117 120 55 12 206 171 148 194 196 212 226 224 193 78 63 56 72 101 112 121 119 119 129 133 136 139 138 135 121 112 126 124 146 251 251 220 114 109 115 129 158 182 200 207 217 231 226 220 219 216 214 214 213 213 210 208 204 189 168 158 152 148 148 148 142 128 114 112 127
199 232 343 18 120 40 316 143 86 25 112 144 180 165 135 77 80 111 156 91 128 212 178 110 160 177 196 178 158 171 153 124 118 116 120 132 136 128 126 132 129 130 130 128 127 117 107 160 126 149 224 239 166 114 123 130 147 178 196 200 193 202 223 223 221 221 218 219 222 219 215 211 210 208 199 179 162 156 155 154 154 158 145 120 114 126
199 234 319 261 173 37 340 156 111 60 21 29 148 135 133 188 166 156 166 151 182 202 169 144 188 238 211 185 150 179 155 130 130 132 135 131 113 103 96 96 100 97 95 96 96 96 99 259 117 133 203 213 104 121 135 143 157 185 198 192 184 198 216 218 219 221 221 223 224 219 214 211 210 208 203 188 169 164 169 170 165 165 155 129 123 130
130 237 239 179 304 0 0 220 174 134 57 54 117 116 44 283 178 171 154 168 189 190 165 159 191 226 206 328 308 228 112 125 144 144 138 116 77 68 69 72 88 94 93 96 85 68 41 359 43 67 75 102 121 131 144 155 165 181 189 186 189 201 211 217 221 222 221 220 218 214 212 212 209 205 202 193 182 176 178 182 176 166 154 137 137 143
91 211 218 17 317 219 182 328 234 184 124 127 153 153 138 79 100 177 111 41 195 175 163 173 192 203 109 5 300 312 25 130 158 146 128 96 75 64 53 35 87 89 71 71 81 76 63 36 46 61 75 109 133 137 152 168 175 181 185 187 194 203 212 219 221 220 219 217 211 209 210 212 208 205 202 196 193 188 184 191 193 176 157 146 149 156
128 170 191 208 204 184 88 20 294 237 194 180 180 173 156 132 145 171 164 141 328 161 168 181 186 163 62 359 301 306 320 289 199 146 124 101 97 87 74 81 94 90 76 60 69 63 53 51 60 77 94 115 135 147 161 173 181 186 186 186 193 206 217 221 221 219 219 216 210 206 209 212 208 205 202 198 197 195 194 202 206 192 168 158 163 170
127 125 133 104 120 162 41 35 260 204 137 115 78 120 146 141 149 176 188 174 145 131 143 180 185 143 45 358 329 317 309 289 235 151 126 111 110 110 118 116 94 90 85 67 63 58 55 55 62 77 91 104 129 153 166 177 188 191 189 189 198 213 222 225 227 226 224 218 209 205 205 208 207 204 203 200 199 198 202 213 219 212 190 176 179 189
110 91 97 110 93 335 262 180 189 128 125 96 54 56 146 149 100 143 174 154 155 157 145 175 193 138 51 4 355 354 7 65 137 133 124 124 125 125 128 120 103 96 86 73 70 66 66 66 64 67 75 87 115 149 166 177 191 197 197 198 205 213 220 225 230 237 240 226 209 202 200 200 201 202 202 202 203 204 208 217 225 223 210 197 195 202
343 356 61 127 139 138 169 187 200 148 92 74 57 3 330 99 106 122 103 122 174 180 164 190 191 128 68 21 21 23 44 77 82 92 109 114 117 122 119 104 92 86 75 66 64 63 63 64 63 64 66 73 88 119 153 170 186 200 209 217 219 221 227 234 242 251 258 243 215 206 206 206 204 204 204 208 212 214 217 221 224 224 220 215 210 209
77 53 324 170 172 180 174 177 199 155 125 84 67 9 359 76 133 138 132 174 192 172 172 207 167 126 88 26 25 24 35 61 61 61 75 76 79 90 90 82 77 71 66 61 58 58 58 56 56 58 59 61 66 74 102 148 171 189 204 223 234 238 244 252 255 256 261 262 245 229 226 225 222 220 220 224 229 231 229 226 222 221 223 226 224 218
99 80 11 33 99 141 154 349 322 303 116 75 52 24 6 335 305 126 134 176 179 149 162 249 123 139 110 16 14 16 22 41 47 45 57 62 62 67 71 72 71 67 65 63 59 58 57 55 52 51 51 53 55 56 59 74 107 140 168 200 226 242 252 257 259 258 260 264 263 255 247 242 235 231 232 240 245 241 234 227 221 220 224 228 228 222
96 69 11 38 58 57 57 39 16 39 67 53 26 7 357 341 320 6 109 121 133 149 171 189 114 137 95 14 5 8 11 26 39 38 50 58 58 65 68 67 64 59 56 54 51 51 53 53 51 49 48 50 52 55 56 60 75 95 108 129 165 213 250 257 258 259 261 261 264 263 260 254 245 237 237 244 246 238 229 223 220 219 222 224 225 224
112 93 354 46 60 53 46 41 45 63 79 67 45 26 5 4 27 62 56 12 17 138 147 126 110 98 62 17 8 11 9 25 42 44 59 66 68 74 70 64 59 54 53 53 51 51 52 51 51 50 48 48 50 52 54 56 63 74 89 108 134 180 238 259 262 260 257 255 259 264 266 259 246 238 237 242 243 234 225 221 218 216 219 223 227 230
118 130 146 115 67 29 12 11 34 54 63 57 46 38 27 33 54 69 60 51 80 78 78 102 99 81 42 7 13 17 13 44 62 60 63 64 69 74 70 65 62 57 55 56 54 54 57 56 55 52 48 45 44 46 52 58 64 69 76 90 95 91 144 224 254 260 256 251 251 252 253 253 248 241 237 235 234 227 218 216 214 214 218 221 225 230
104 157 168 127 87 13 341 347 17 45 53 47 33 21 22 37 52 60 59 56 76 88 96 96 91 79 45 26 36 35 38 64 66 59 56 53 57 68 69 63 60 57 54 54 52 52 53 52 51 48 45 41 39 42 49 57 65 69 72 84 102 98 107 139 217 262 265 262 260 257 254 254 254 249 239 231 226 220 214 212 212 212 216 216 215 221
68 131 154 121 131 184 294 347 15 38 40 20 350 3 8 16 43 58 58 21 18 122 131 112 94 92 83 69 63 58 60 64 62 57 57 56 55 63 67 64 61 58 54 52 51 49 48 47 45 42 41 39 37 38 42 48 57 61 62 68 75 76 84 94 120 275 281 278 274 277 277 278 280 270 252 236 226 219 214 213 213 212 213 212 210 215
100 144 151 143 156 165 116 85 61 48 28 308 290 63 30 43 96 83 53 23 357 308 151 120 113 118 116 106 84 69 62 61 57 52 55 60 61 65 67 66 64 59 54 53 52 51 49 47 45 44 42 40 39 39 39 42 48 52 56 60 61 59 60 61 55 45 19 337 300 302 306 309 312 301 266 241 232 231 229 228 225 221 218 213 210 212
133 146 145 140 148 139 110 114 113 131 184 272 337 293 261 103 105 100 62 25 14 31 81 92 107 116 116 107 94 83 73 65 62 55 49 52 60 64 64 63 63 58 53 49 46 46 46 44 45 45 44 43 40 38 38 37 38 41 47 54 57 55 54 54 53 48 40 36 41 34 7 346 332 323 302 251 233 234 237 233 230 233 231 223 216 215
113 122 118 84 100 119 125 128 137 176 221 348 359 333 177 116 105 97 78 45 34 60 91 99 106 112 110 104 98 95 90 81 71 59 49 47 52 57 57 53 51 51 49 44 39 36 36 38 39 36 36 39 38 36 34 31 27 26 30 39 47 51 51 48 43 36 28 29 43 52 43 19 344 316 298 267 233 229 232 227 224 231 230 217 207 202
104 113 108 72 74 128 149 155 160 188 333 12 35 60 95 113 112 94 73 47 25 28 87 106 110 115 114 112 108 103 102 97 79 60 45 44 49 56 59 49 42 42 42 40 34 29 27 29 31 29 28 31 33 33 32 28 23 19 18 20 24 31 38 39 33 27 17 9 16 28 24 49 63 27 324 291 260 244 238 230 217 201 180 163 159 154
111 122 111 80 58 140 136 134 67 347 297 155 138 133 98 92 39 71 83 66 27 2 60 111 119 124 127 130 129 124 141 114 85 60 38 35 37 45 53 49 40 37 33 33 33 31 28 26 26 25 25 26 28 27 24 20 17 15 14 13 10 7 8 12 15 18 17 9 4 5 349 317 179 162 237 254 264 241 218 200 182 166 157 151 146 142
67 57 86 119 63 80 106 116 124 241 220 167 134 112 36 82 266 253 129 98 54 2 15 115 123 124 139 158 159 186 235 101 86 62 31 29 26 28 38 38 35 33 29 26 25 22 20 20 18 18 20 22 23 20 16 11 8 8 7 8 7 4 2 2 0 359 359 353 339 351 13 0 288 231 212 211 212 195 181 175 171 168 167 163 155 150
62 52 63 101 102 99 122 145 181 193 190 80 102 11 335 295 218 214 159 122 97 9 0 115 107 94 95 126 138 176 206 142 109 77 23 20 23 25 29 28 27 28 26 24 22 16 12 14 13 13 14 13 10 8 6 2 0 0 360 357 356 357 359 359 356 351 344 328 304 293 304 326 319 267 219 214 207 190 180 179 179 177 175 170 161 156
52 39 57 116 133 141 140 153 218 204 55 6 327 321 333 1 172 190 187 156 135 111 70 99 90 71 55 56 71 85 75 91 103 71 19 14 25 30 29 24 21 21 20 20 18 14 11 12 12 10 9 5 359 356 354 352 350 348 348 346 345 348 352 349 346 343 337 324 305 290 286 288 290 284 265 237 217 205 197 192 189 185 180 177 173 169
41 26 37 120 118 127 149 141 142 219 189 283 303 318 325 192 184 195 183 131 121 123 105 89 85 70 59 60 64 65 58 56 69 57 28 24 28 27 24 21 19 20 19 15 13 11 7 6 5 2 359 355 352 349 346 344 340 335 333 334 333 336 338 336 332 331 328 323 313 302 295 290 285 280 275 264 247 230 214 203 201 199 193 187 184 180
34 38 46 80 85 94 127 115 98 160 99 347 310 304 287 215 192 154 113 101 114 118 104 83 80 72 66 68 69 74 77 68 57 46 36 31 25 16 14 13 11 13 10 5 6 7 0 353 352 351 347 344 344 343 342 340 336 330 325 322 322 325 328 326 322 321 320 318 314 310 304 299 294 285 274 263 255 245 234 225 218 209 201 197 194 189
18 30 76 81 85 116 111 101 176 171 60 352 309 278 330 352 131 120 114 109 105 106 104 90 76 64 68 77 76 77 80 68 48 35 30 27 20 8 4 5 2 360 358 355 356 357 352 344 341 339 336 333 332 332 333 333 332 329 323 317 314 315 316 315 313 311 310 308 308 307 305 302 301 296 283 266 254 245 239 236 232 222 213 209 204 197
11 0 126 116 346 286 130 115 109 31 9 345 323 99 70 66 102 118 113 108 99 99 103 93 77 63 61 71 75 76 71 50 32 23 14 9 6 357 353 355 354 351 349 347 346 346 345 338 333 330 328 327 326 323 321 322 323 320 314 308 305 305 304 303 303 302 301 300 300 300 301 300 299 298 293 279 263 250 241 238 236 229 223 219 215 209
31 22 60 73 55 39 65 88 85 35 18 19 47 78 78 76 80 84 90 94 89 82 86 89 94 89 70 63 68 68 56 36 18 15 5 353 349 346 345 346 345 342 339 337 336 338 337 331 326 323 321 320 321 318 313 311 309 304 300 297 298 300 301 300 298 297 295 296 295 295 296 297 295 295 293 287 277 262 247 237 231 224 220 218 215 211
63 40 12 77 104 87 62 59 55 40 42 41 46 58 65 66 66 71 84 90 81 74 81 87 99 94 67 56 62 56 41 24 1 355 352 339 332 335 338 338 337 337 333 329 329 330 327 322 319 317 315 316 317 315 310 306 299 292 291 291 292 293 295 296 296 295 292 290 290 290 292 293 293 292 290 288 285 274 257 244 235 228 221 215 210 207
57 77 79 98 124 114 91 103 79 40 49 49 52 66 69 63 57 55 74 90 89 79 77 73 79 78 56 49 50 30 11 12 0 346 339 330 327 332 335 335 335 334 331 328 327 327 325 322 320 318 317 317 317 315 312 308 301 294 292 291 289 288 287 288 287 287 287 286 286 286 285 286 288 288 288 286 285 281 270 254 242 232 224 214 206 203
32 47 98 99 82 61 103 126 115 68 66 47 53 91 98 88 82 76 82 97 96 81 76 69 63 63 52 45 43 13 354 2 359 345 335 327 327 330 333 334 333 332 331 330 329 328 326 322 320 319 318 317 316 314 311 308 304 300 297 294 291 287 283 280 279 278 278 278 279 279 278 278 279 280 281 281 279 281 277 260 243 230 222 214 207 204
327 325 101 102 98 89 95 130 147 138 134 144 127 117 116 106 102 97 92 96 95 89 86 77 64 61 56 46 33 4 351 356 357 348 337 329 330 332 332 333 332 332 332 333 331 330 328 323 321 320 318 316 315 314 310 307 305 303 300 297 294 290 284 279 277 275 272 269 268 268 269 270 269 267 268 271 272 272 274 264 246 232 225 220 213 208
248 142 124 120 125 130 160 171 168 155 142 168 169 151 137 132 125 121 116 109 109 112 106 87 76 73 61 44 28 10 357 352 351 346 335 328 329 329 329 331 332 331 332 333 331 329 326 323 321 318 315 313 311 306 303 301 300 299 298 296 293 289 284 282 280 277 272 265 261 259 259 262 262 259 259 262 263 262 263 263 252 237 230 229 224 216
110 138 150 150 133 132 194 169 162 109 47 144 156 148 147 156 145 133 125 110 109 113 102 83 77 62 42 36 31 18 2 351 346 341 332 325 325 325 326 329 330 328 328 328 327 324 323 322 321 317 312 309 307 303 300 297 296 296 296 293 289 283 279 278 276 274 272 268 262 257 255 256 257 257 256 257 258 255 250 248 248 243 235 233 231 228